Retour au catalogue

SL-6 DEB

LostHEO
NORAD 13909·DEBRIS·🇷🇺 Russia

Lancé Sep 11, 1981 depuis Plesetsk Cosmodrome

Loading…

Prochains Passages (prochaines 24 heures)

TLE

PériméSource: Space-Track

Époque: Sep 27, 2025, 02:51 UTC

1 13909U 81088J   25270.11915938  .00000009  00000-0  00000-0 0  9999
2 13909  63.6821 248.5153 4388952 283.8430  32.3084  5.75684761261722

Suivez SL-6 DEB en temps réel avec AllMySat

Download on the App Store